SHT14M EGLL-EGJJ

Flight info

Callsign SHT14M
Flight time 0h 35m
Altitude 24000
Route GOGSI2F GOGSI N621 SAM N63 LELNA LELNA1K
Aircraft A319/M-SDE2E3FGHIJ1RWXY/S

Departure

Time 2026-05-05 10:01
Airport London Heathrow Airport (EGLL)

Arrival

Time 2026-05-05 10:37
Airport Jersey Airport (EGJJ)
Time Latitude Longitude Altitude Speed Heading
2026-05-05 09:25 51.47416 -0.48953 86 ft 0 kts 180°
2026-05-05 09:53 51.47434 -0.48953 90 ft 4 kts 180°
2026-05-05 09:53 51.47453 -0.48954 89 ft 4 kts 209°
2026-05-05 09:53 51.47467 -0.48929 89 ft 3 kts 219°
2026-05-05 09:54 51.47484 -0.48909 88 ft 4 kts 186°
2026-05-05 09:54 51.47499 -0.48921 88 ft 4 kts 135°
2026-05-05 09:54 51.47506 -0.48932 89 ft 0 kts 135°
2026-05-05 09:56 51.47506 -0.48931 89 ft 1 kts 135°
2026-05-05 09:56 51.47490 -0.48891 89 ft 8 kts 110°
2026-05-05 09:56 51.47486 -0.48765 86 ft 15 kts 89°
2026-05-05 09:57 51.47487 -0.48573 87 ft 17 kts 89°
2026-05-05 09:57 51.47445 -0.48476 87 ft 13 kts 174°
2026-05-05 09:57 51.47347 -0.48474 86 ft 15 kts 179°
2026-05-05 09:57 51.47234 -0.48472 86 ft 16 kts 180°
2026-05-05 09:58 51.47157 -0.48473 86 ft 17 kts 180°
2026-05-05 09:58 51.47055 -0.48472 88 ft 12 kts 179°
2026-05-05 09:58 51.46974 -0.48470 86 ft 10 kts 179°
2026-05-05 09:58 51.46901 -0.48469 86 ft 8 kts 180°
2026-05-05 09:59 51.46845 -0.48469 86 ft 6 kts 180°
2026-05-05 09:59 51.46802 -0.48469 86 ft 9 kts 180°
2026-05-05 09:59 51.46728 -0.48469 86 ft 12 kts 180°
2026-05-05 09:59 51.46643 -0.48468 86 ft 14 kts 179°
2026-05-05 10:00 51.46568 -0.48467 87 ft 10 kts 179°
2026-05-05 10:00 51.46494 -0.48466 87 ft 9 kts 179°
2026-05-05 10:00 51.46479 -0.48401 87 ft 3 kts 91°
2026-05-05 10:00 51.46479 -0.48182 88 ft 47 kts 89°
2026-05-05 10:01 51.46483 -0.47321 87 ft 106 kts 90°
2026-05-05 10:01 51.46487 -0.45851 91 ft 157 kts 90°
2026-05-05 10:01 51.46479 -0.44029 616 ft 161 kts 87°
2026-05-05 10:01 51.46434 -0.42276 1496 ft 152 kts 89°
2026-05-05 10:02 51.46369 -0.40599 2071 ft 158 kts 94°
2026-05-05 10:02 51.45833 -0.38878 2365 ft 188 kts 121°
2026-05-05 10:02 51.44977 -0.37099 2708 ft 214 kts 125°
2026-05-05 10:02 51.43980 -0.35136 3211 ft 240 kts 128°
2026-05-05 10:03 51.42559 -0.33492 3815 ft 265 kts 155°
2026-05-05 10:03 51.40751 -0.32831 4825 ft 273 kts 175°
2026-05-05 10:03 51.38846 -0.33289 5843 ft 280 kts 200°
2026-05-05 10:03 51.37190 -0.34962 6871 ft 283 kts 225°
2026-05-05 10:04 51.36031 -0.37465 7849 ft 284 kts 237°
2026-05-05 10:04 51.34947 -0.40125 8791 ft 288 kts 238°
2026-05-05 10:04 51.33847 -0.42831 9738 ft 291 kts 238°
2026-05-05 10:04 51.32717 -0.45592 10328 ft 307 kts 236°
2026-05-05 10:05 51.31346 -0.48374 10603 ft 330 kts 230°
2026-05-05 10:05 51.29824 -0.51216 11138 ft 341 kts 229°
2026-05-05 10:05 51.28231 -0.54091 11851 ft 348 kts 228°
2026-05-05 10:05 51.26610 -0.56985 12560 ft 353 kts 228°
2026-05-05 10:06 51.24967 -0.59925 13316 ft 357 kts 228°
2026-05-05 10:06 51.23311 -0.62904 14040 ft 361 kts 229°
2026-05-05 10:06 51.21561 -0.65799 14672 ft 365 kts 219°
2026-05-05 10:06 51.19560 -0.68256 15365 ft 367 kts 216°
2026-05-05 10:07 51.17525 -0.70721 16101 ft 368 kts 217°
2026-05-05 10:07 51.15456 -0.73225 16813 ft 370 kts 216°
2026-05-05 10:07 51.13395 -0.75716 17509 ft 373 kts 216°
2026-05-05 10:07 51.11325 -0.78214 18207 ft 375 kts 216°
2026-05-05 10:08 51.09236 -0.80734 18812 ft 377 kts 216°
2026-05-05 10:08 51.07139 -0.83264 19435 ft 379 kts 216°
2026-05-05 10:08 51.05060 -0.85771 20053 ft 381 kts 216°
2026-05-05 10:08 51.02913 -0.88359 20651 ft 384 kts 216°
2026-05-05 10:09 51.00811 -0.90883 21259 ft 386 kts 215°
2026-05-05 10:09 50.98658 -0.93463 21888 ft 387 kts 216°
2026-05-05 10:09 50.96490 -0.96054 22442 ft 391 kts 216°
2026-05-05 10:09 50.94311 -0.98658 22880 ft 394 kts 216°
2026-05-05 10:10 50.92128 -1.01271 22983 ft 388 kts 216°
2026-05-05 10:10 50.89990 -1.03835 22991 ft 385 kts 216°
2026-05-05 10:10 50.87852 -1.06396 22993 ft 385 kts 216°
2026-05-05 10:10 50.85712 -1.08948 22993 ft 384 kts 215°
2026-05-05 10:11 50.83575 -1.11490 22992 ft 384 kts 215°
2026-05-05 10:11 50.81435 -1.14027 22992 ft 385 kts 216°
2026-05-05 10:11 50.79291 -1.16566 22992 ft 385 kts 215°
2026-05-05 10:11 50.77156 -1.19094 22989 ft 384 kts 216°
2026-05-05 10:12 50.75016 -1.21626 22988 ft 385 kts 216°
2026-05-05 10:12 50.72861 -1.24176 22989 ft 386 kts 216°
2026-05-05 10:12 50.70717 -1.26707 22993 ft 385 kts 216°
2026-05-05 10:12 50.68567 -1.29244 22989 ft 385 kts 216°
2026-05-05 10:13 50.66425 -1.31771 22985 ft 385 kts 216°
2026-05-05 10:13 50.64279 -1.34300 22982 ft 385 kts 215°
2026-05-05 10:13 50.62163 -1.36791 22972 ft 385 kts 214°
2026-05-05 10:13 50.59987 -1.39352 22961 ft 386 kts 216°
2026-05-05 10:14 50.57842 -1.41873 22964 ft 386 kts 215°
2026-05-05 10:14 50.55684 -1.44404 22968 ft 386 kts 215°
2026-05-05 10:14 50.53529 -1.46926 22967 ft 386 kts 216°
2026-05-05 10:14 50.51396 -1.49411 22972 ft 386 kts 216°
2026-05-05 10:15 50.49238 -1.51928 22972 ft 386 kts 215°
2026-05-05 10:15 50.47086 -1.54441 22975 ft 386 kts 215°
2026-05-05 10:15 50.44931 -1.56955 22969 ft 386 kts 215°
2026-05-05 10:15 50.42772 -1.59468 22971 ft 386 kts 215°
2026-05-05 10:16 50.40613 -1.61980 22982 ft 386 kts 214°
2026-05-05 10:16 50.38456 -1.64486 22972 ft 387 kts 215°
2026-05-05 10:16 50.36290 -1.66997 22963 ft 387 kts 215°
2026-05-05 10:16 50.34121 -1.69508 22965 ft 388 kts 215°
2026-05-05 10:17 50.31954 -1.72016 22962 ft 388 kts 215°
2026-05-05 10:17 50.29783 -1.74532 22963 ft 388 kts 214°
2026-05-05 10:17 50.27609 -1.77043 22965 ft 388 kts 214°
2026-05-05 10:17 50.25440 -1.79542 22969 ft 388 kts 214°
2026-05-05 10:18 50.23260 -1.82049 22966 ft 388 kts 214°
2026-05-05 10:18 50.21087 -1.84549 22925 ft 387 kts 214°
2026-05-05 10:18 50.18927 -1.87029 22647 ft 382 kts 214°
2026-05-05 10:18 50.16792 -1.89476 22389 ft 382 kts 214°
2026-05-05 10:19 50.14642 -1.91937 22114 ft 384 kts 214°
2026-05-05 10:19 50.12519 -1.94368 21852 ft 383 kts 214°
2026-05-05 10:19 50.10347 -1.96854 21585 ft 382 kts 214°
2026-05-05 10:19 50.08207 -1.99302 21323 ft 381 kts 214°
2026-05-05 10:20 50.06074 -2.01738 21067 ft 380 kts 213°
2026-05-05 10:20 50.03942 -2.04163 20814 ft 379 kts 214°
2026-05-05 10:20 50.01815 -2.06583 20557 ft 378 kts 213°
2026-05-05 10:20 49.99679 -2.08921 20273 ft 372 kts 208°
2026-05-05 10:21 49.97372 -2.10691 19987 ft 369 kts 197°
2026-05-05 10:21 49.94905 -2.11780 19983 ft 370 kts 189°
2026-05-05 10:21 49.92387 -2.12627 19980 ft 370 kts 191°
2026-05-05 10:21 49.89869 -2.13487 19977 ft 370 kts 190°
2026-05-05 10:22 49.87356 -2.14351 19975 ft 370 kts 190°
2026-05-05 10:22 49.84840 -2.15217 19763 ft 370 kts 191°
2026-05-05 10:22 49.82292 -2.16093 18813 ft 382 kts 191°
2026-05-05 10:22 49.79688 -2.16983 18096 ft 385 kts 191°
2026-05-05 10:23 49.77103 -2.17862 17414 ft 384 kts 191°
2026-05-05 10:23 49.74507 -2.18744 16749 ft 382 kts 192°
2026-05-05 10:23 49.71924 -2.19620 16111 ft 379 kts 191°
2026-05-05 10:23 49.69361 -2.20540 15473 ft 377 kts 193°
2026-05-05 10:24 49.66829 -2.21598 14808 ft 376 kts 195°
2026-05-05 10:24 49.64318 -2.22542 14474 ft 364 kts 185°
2026-05-05 10:24 49.61851 -2.22406 14236 ft 350 kts 172°
2026-05-05 10:24 49.59449 -2.21919 13777 ft 347 kts 170°
2026-05-05 10:25 49.57067 -2.21428 13238 ft 344 kts 170°
2026-05-05 10:25 49.54693 -2.20944 12669 ft 343 kts 171°
2026-05-05 10:25 49.52330 -2.20486 12118 ft 342 kts 171°
2026-05-05 10:25 49.49976 -2.20024 11661 ft 338 kts 173°
2026-05-05 10:26 49.47637 -2.20277 11170 ft 338 kts 189°
2026-05-05 10:26 49.45342 -2.20989 10689 ft 335 kts 193°
2026-05-05 10:26 49.43256 -2.22415 10316 ft 331 kts 217°
2026-05-05 10:26 49.41659 -2.24836 10190 ft 317 kts 230°
2026-05-05 10:27 49.40243 -2.27369 10036 ft 308 kts 231°
2026-05-05 10:27 49.38867 -2.29853 9835 ft 303 kts 231°
2026-05-05 10:27 49.37506 -2.32311 9524 ft 301 kts 231°
2026-05-05 10:27 49.36155 -2.34768 9151 ft 300 kts 231°
2026-05-05 10:28 49.34817 -2.37212 8764 ft 298 kts 231°
2026-05-05 10:28 49.33485 -2.39650 8384 ft 297 kts 231°
2026-05-05 10:28 49.32212 -2.42130 8002 ft 295 kts 240°
2026-05-05 10:28 49.31366 -2.44957 7501 ft 291 kts 250°
2026-05-05 10:29 49.30636 -2.47843 6965 ft 290 kts 250°
2026-05-05 10:29 49.29929 -2.50689 6663 ft 279 kts 250°
2026-05-05 10:29 49.29267 -2.53363 6537 ft 263 kts 250°
2026-05-05 10:29 49.28625 -2.55936 6157 ft 256 kts 249°
2026-05-05 10:30 49.27650 -2.58165 5636 ft 254 kts 220°
2026-05-05 10:30 49.26103 -2.59334 5191 ft 246 kts 186°
2026-05-05 10:30 49.24493 -2.59078 5054 ft 224 kts 152°
2026-05-05 10:30 49.23316 -2.57731 4936 ft 205 kts 131°
2026-05-05 10:31 49.22327 -2.56247 4794 ft 195 kts 130°
2026-05-05 10:31 49.21384 -2.54752 4689 ft 197 kts 129°
2026-05-05 10:31 49.20445 -2.53205 4612 ft 200 kts 126°
2026-05-05 10:31 49.19402 -2.51754 4460 ft 204 kts 130°
2026-05-05 10:32 49.18575 -2.50008 4365 ft 208 kts 111°
2026-05-05 10:32 49.18396 -2.47844 4222 ft 202 kts 81°
2026-05-05 10:32 49.18565 -2.45762 3949 ft 189 kts 80°
2026-05-05 10:32 49.18739 -2.43799 3508 ft 187 kts 79°
2026-05-05 10:33 49.18907 -2.41862 3143 ft 178 kts 79°
2026-05-05 10:33 49.19058 -2.40079 2880 ft 160 kts 78°
2026-05-05 10:33 49.19194 -2.38481 2663 ft 144 kts 78°
2026-05-05 10:33 49.19319 -2.37016 2479 ft 136 kts 78°
2026-05-05 10:34 49.19442 -2.35590 2291 ft 134 kts 78°
2026-05-05 10:34 49.19562 -2.34185 2111 ft 133 kts 78°
2026-05-05 10:34 49.19677 -2.32825 1938 ft 126 kts 77°
2026-05-05 10:34 49.19788 -2.31512 1766 ft 123 kts 78°
2026-05-05 10:35 49.19898 -2.30219 1592 ft 122 kts 78°
2026-05-05 10:35 49.20007 -2.28929 1426 ft 122 kts 78°
2026-05-05 10:35 49.20115 -2.27647 1258 ft 121 kts 77°
2026-05-05 10:35 49.20224 -2.26359 1081 ft 122 kts 79°
2026-05-05 10:36 49.20333 -2.25064 908 ft 123 kts 77°
2026-05-05 10:36 49.20442 -2.23770 742 ft 123 kts 78°
2026-05-05 10:36 49.20550 -2.22478 575 ft 123 kts 76°
2026-05-05 10:36 49.20658 -2.21172 372 ft 122 kts 79°
2026-05-05 10:37 49.20771 -2.19918 284 ft 109 kts 83°
2026-05-05 10:37 49.20825 -2.19228 284 ft 25 kts 86°
2026-05-05 10:37 49.20783 -2.18991 282 ft 19 kts 111°
2026-05-05 10:37 49.20733 -2.18848 283 ft 12 kts 148°
2026-05-05 10:38 49.20700 -2.18916 283 ft 10 kts 265°
2026-05-05 10:38 49.20688 -2.19005 283 ft 8 kts 267°
2026-05-05 10:38 49.20684 -2.19104 283 ft 10 kts 264°
2026-05-05 10:38 49.20687 -2.19243 280 ft 15 kts 287°
2026-05-05 10:39 49.20711 -2.19401 281 ft 14 kts 274°
2026-05-05 10:39 49.20696 -2.19557 280 ft 16 kts 259°
2026-05-05 10:39 49.20660 -2.19654 280 ft 14 kts 217°
2026-05-05 10:39 49.20609 -2.19798 280 ft 13 kts 263°
2026-05-05 10:40 49.20586 -2.19926 283 ft 13 kts 214°
2026-05-05 10:40 49.20489 -2.19922 280 ft 15 kts 174°
2026-05-05 10:40 49.20434 -2.19839 280 ft 14 kts 85°
2026-05-05 10:40 49.20440 -2.19746 280 ft 13 kts 83°
2026-05-05 10:41 49.20442 -2.19635 280 ft 8 kts 70°
2026-05-05 10:41 49.20477 -2.19622 285 ft 2 kts 14°
2026-05-05 10:41 49.20486 -2.19618 283 ft 1 kts 14°
2026-05-05 10:41 49.20488 -2.19618 282 ft 0 kts 14°